Погода в Чжоушане

Китай     29°58′03″N   122°14′43″E
темп.,
°C
ветер,
м/с
пор.,
м/с
влажн.,
%
обл.,
%
осадки,
мм/ч
давл.,
гПа
погр.,
м
21 января, пт
пт2123:00+7ссв4567100 0.0 1028667
02:00+8св4665100 0.0 1027744
05:00+8св3566100 0.0 1027589
08:00+9св4566100 0.0 1027740
11:00+10всв456294 0.0 1027833
14:00+10в446245 0.0 1025820
17:00+10в4566100 0.0 1024554
20:00+10вюв456889 0.0 1025514
22 января, сб
сб2223:00+10вюв467299 0.0 1023412
02:00+10вюв3479100 0.0 1022134
05:00+11вюв2280100 0.0 102135
08:00+10в2289100 1.2 102293
11:00+10вюв1296100 3.5 102194
14:00+11всв1298100 10.8 101899
17:00+11ссв2399100 5.1 101897
20:00+11с2399100 11.9 1019108
23 января, вс
вс2323:00+10ссз4599100 4.9 1019223
02:00+10ссз4797100 5.8 1018267
05:00+9сз5997100 0.1 1018309
08:00+9ссз5997100 0.5 1020309
11:00+9ссз61097100 0.1 1020356
14:00+10ссз51097100 0.4 1018394
17:00+10с51096100 0.4 1019423
20:00+11ссв61091100 0.4 1021412
24 января, пн
пн2423:00+10св5889100 0.0 1021384
02:00+10св5889100 0.1 1020390
05:00+10св5790100 0.3 1019411
08:00+10св5790100 0.5 1020387
11:00+10св4587100 0.0 1021371
14:00+10ссв458896 0.1 1019329
17:00+10ссв5690100 0.0 1019340
20:00+9ссв5690100 0.4 1020372
25 января, вт
вт2523:00+9ссв4694100 2.1 1020347
02:00+9с4696100 5.2 1020370
05:00+8ссз6794100 1.8 1020468
08:00+8ссз6893100 3.0 1022539
11:00+8ссз6790100 0.9 1023575
14:00+7ссз7889100 0.9 1021628
17:00+7ссз7888100 0.0 1022640
20:00+7ссз6886100 0.1 1024754